| time (UTC) | temp C | wind direction | speed KPH | gust KPH | rain 1hr cm | rain 24hr cm | rain mn cm | humidity % | barometer mb |
| 20260504184339 | 22 | 277 | 6.4 | 11.3 | 0.00 | 0.00 | 0.46 | 47 | 1015.6 |
| 20260504183408 | 22 | 241 | 0.0 | 8.0 | 0.00 | 0.00 | 0.46 | 45 | 1015.6 |
| 20260504182847 | 22 | 114 | 0.0 | 8.0 | 0.00 | 0.00 | 0.46 | 48 | 1015.9 |
| 20260504182339 | 22 | 256 | 4.8 | 9.7 | 0.00 | 0.00 | 0.46 | 48 | 1016.3 |
| 20260504181841 | 22 | 277 | 1.6 | 6.4 | 0.00 | 0.00 | 0.46 | 49 | 1016.3 |
| 20260504181341 | 22 | 47 | 1.6 | 4.8 | 0.00 | 0.00 | 0.46 | 49 | 1016.3 |
| 20260504180840 | 21 | 220 | 3.2 | 6.4 | 0.00 | 0.00 | 0.46 | 50 | 1016.3 |
| 20260504180340 | 21 | 81 | 9.7 | 9.7 | 0.00 | 0.00 | 0.46 | 48 | 1016.3 |
| 20260504175840 | 21 | 267 | 3.2 | 6.4 | 0.00 | 0.00 | 0.46 | 51 | 1016.6 |
| 20260504175339 | 21 | 275 | 4.8 | 8.0 | 0.00 | 0.00 | 0.46 | 52 | 1016.3 |
| 20260504174840 | 21 | 262 | 4.8 | 6.4 | 0.00 | 0.00 | 0.46 | 51 | 1016.3 |
| 20260504174339 | 21 | 304 | 0.0 | 11.3 | 0.00 | 0.00 | 0.46 | 52 | 1016.9 |
| 20260504173840 | 21 | 146 | 3.2 | 4.8 | 0.00 | 0.00 | 0.46 | 52 | 1016.6 |
| 20260504173340 | 21 | 279 | 3.2 | 8.0 | 0.00 | 0.00 | 0.46 | 52 | 1016.6 |
| 20260504172840 | 21 | 246 | 3.2 | 4.8 | 0.00 | 0.00 | 0.46 | 56 | 1016.6 |
| 20260504172341 | 20 | 277 | 3.2 | 8.0 | 0.00 | 0.00 | 0.46 | 55 | 1016.6 |
| 20260504171840 | 20 | 186 | 3.2 | 4.8 | 0.00 | 0.00 | 0.46 | 54 | 1016.6 |
| 20260504171341 | 20 | 94 | 3.2 | 8.0 | 0.00 | 0.00 | 0.46 | 55 | 1016.6 |
| 20260504170839 | 20 | 244 | 3.2 | 9.7 | 0.00 | 0.00 | 0.46 | 55 | 1017.3 |
| 20260504170341 | 20 | 248 | 3.2 | 6.4 | 0.00 | 0.00 | 0.46 | 56 | 1016.9 |
| 20260504160340 | 18 | 230 | 4.8 | 8.0 | 0.00 | 0.00 | 0.46 | 66 | 1018.3 |
| 20260504150840 | 15 | 86 | 3.2 | 4.8 | 0.00 | 0.00 | 0.46 | 83 | 1019.0 |
| 20260504150341 | 14 | 141 | 0.0 | 8.0 | 0.00 | 0.00 | 0.46 | 83 | 1019.0 |
| 20260504140840 | 11 | 92 | 3.2 | 6.4 | 0.00 | 0.00 | 0.46 | 97 | 1019.6 |
| 20260504140340 | 11 | 93 | 4.8 | 4.8 | 0.00 | 0.00 | 0.46 | 97 | 1019.6 |
| 20260504130341 | 8 | 80 | 0.0 | 6.4 | 0.48 | 0.00 | 0.43 | 96 | 1020.3 |
| 20260504110340 | 5 | 138 | 3.2 | 4.8 | 0.00 | 0.00 | 0.00 | 93 | 1018.6 |
| 20260504100340 | 6 | 89 | 0.0 | 8.0 | 0.00 | 0.00 | 0.00 | 91 | 1017.9 |
| 20260504081840 | 5 | 300 | 0.0 | 4.8 | 0.00 | 0.00 | 0.00 | 89 | 1018.6 |
| 20260504081340 | 5 | 76 | 4.8 | 8.0 | 0.00 | 0.00 | 0.00 | 90 | 1018.6 |
| 20260504080840 | 5 | 243 | 3.2 | 6.4 | 0.00 | 0.00 | 0.00 | 90 | 1018.6 |
| 20260504080339 | 5 | 119 | 0.0 | 4.8 | 0.00 | 0.00 | 0.00 | 89 | 1018.3 |
| 20260504070341 | 5 | 269 | 0.0 | 8.0 | 0.00 | 0.00 | 0.00 | 88 | 1019.0 |
| 20260504050340 | 6 | 269 | 0.0 | 1.6 | 0.00 | 0.00 | 0.00 | 81 | 1019.3 |
| 20260504045839 | 6 | 107 | 0.0 | 0.0 | 0.00 | 0.00 | 0.00 | 80 | 1019.3 |
| 20260504045340 | 6 | 224 | 0.0 | 1.6 | 0.00 | 0.00 | 0.00 | 79 | 1019.6 |
| 20260504044839 | 6 | 99 | 0.0 | 3.2 | 0.00 | 0.00 | 0.00 | 81 | 1019.3 |
| 20260504044339 | 6 | 245 | 1.6 | 1.6 | 0.00 | 0.00 | 0.00 | 80 | 1019.3 |
| 20260504043840 | 6 | 39 | 0.0 | 0.0 | 0.00 | 0.00 | 0.00 | 80 | 1019.6 |
| 20260504043340 | 6 | 78 | 0.0 | 1.6 | 0.00 | 0.00 | 0.00 | 81 | 1019.3 |
| 20260504042839 | 6 | 224 | 0.0 | 0.0 | 0.00 | 0.00 | 0.00 | 80 | 1019.3 |
| 20260504042340 | 6 | 249 | 0.0 | 1.6 | 0.00 | 0.00 | 0.00 | 80 | 1019.3 |
| 20260504041839 | 6 | 221 | 0.0 | 3.2 | 0.00 | 0.00 | 0.00 | 79 | 1019.3 |
| 20260504041340 | 6 | 235 | 0.0 | 0.0 | 0.00 | 0.00 | 0.00 | 79 | 1019.0 |
| 20260504040840 | 6 | 81 | 0.0 | 1.6 | 0.00 | 0.00 | 0.00 | 78 | 1019.0 |
| 20260504040340 | 6 | 76 | 0.0 | 0.0 | 0.00 | 0.00 | 0.00 | 78 | 1018.6 |
| 20260504035839 | 6 | 147 | 0.0 | 0.0 | 0.00 | 0.00 | 0.00 | 78 | 1019.0 |
| 20260504035342 | 6 | 50 | 0.0 | 3.2 | 0.00 | 0.00 | 0.00 | 78 | 1019.0 |
| 20260504034839 | 6 | 117 | 0.0 | 0.0 | 0.00 | 0.00 | 0.00 | 78 | 1019.0 |
| 20260504034340 | 6 | 129 | 0.0 | 0.0 | 0.00 | 0.00 | 0.00 | 78 | 1019.0 |
| 20260504033840 | 6 | 76 | 0.0 | 0.0 | 0.00 | 0.00 | 0.00 | 78 | 1019.0 |
| 20260504032853 | 6 | 229 | 0.0 | 1.6 | 0.00 | 0.00 | 0.00 | 80 | 1018.6 |
| 20260504032339 | 5 | 32 | 0.0 | 0.0 | 0.00 | 0.00 | 0.00 | 80 | 1018.6 |
| 20260504031839 | 5 | 234 | 0.0 | 1.6 | 0.00 | 0.00 | 0.00 | 79 | 1019.0 |
| 20260504031339 | 5 | 136 | 0.0 | 0.0 | 0.00 | 0.00 | 0.00 | 80 | 1018.6 |
| 20260504030839 | 6 | 157 | 0.0 | 0.0 | 0.00 | 0.00 | 0.00 | 79 | 1019.0 |
| 20260504030339 | 6 | 185 | 0.0 | 0.0 | 0.00 | 0.00 | 0.00 | 79 | 1019.0 |
| 20260504025840 | 6 | 217 | 0.0 | 0.0 | 0.00 | 0.00 | 0.00 | 79 | 1019.0 |
| 20260504025340 | 6 | 229 | 0.0 | 0.0 | 0.00 | 0.00 | 0.00 | 77 | 1019.0 |
| 20260504024840 | 6 | 141 | 0.0 | 0.0 | 0.00 | 0.00 | 0.00 | 77 | 1019.0 |
| 20260504024339 | 6 | 129 | 0.0 | 1.6 | 0.00 | 0.00 | 0.00 | 78 | 1019.0 |
| 20260504023839 | 6 | 76 | 0.0 | 1.6 | 0.00 | 0.00 | 0.00 | 78 | 1018.6 |
| 20260504023340 | 6 | 230 | 0.0 | 1.6 | 0.00 | 0.00 | 0.00 | 74 | 1018.6 |
| 20260504022840 | 6 | 76 | 0.0 | 0.0 | 0.00 | 0.00 | 0.00 | 76 | 1018.6 |
| 20260504022339 | 6 | 89 | 0.0 | 0.0 | 0.00 | 0.00 | 0.00 | 76 | 1018.6 |
| 20260504021840 | 6 | 130 | 0.0 | 0.0 | 0.00 | 0.00 | 0.00 | 75 | 1018.3 |
| 20260504021339 | 6 | 224 | 0.0 | 1.6 | 0.00 | 0.00 | 0.00 | 73 | 1018.6 |
| 20260504020839 | 7 | 124 | 0.0 | 1.6 | 0.00 | 0.00 | 0.00 | 75 | 1018.6 |
| 20260504020340 | 7 | 37 | 0.0 | 3.2 | 0.00 | 0.00 | 0.00 | 74 | 1018.6 |
| 20260504015840 | 7 | 249 | 0.0 | 0.0 | 0.00 | 0.00 | 0.00 | 71 | 1018.6 |
| 20260504015339 | 7 | 49 | 0.0 | 0.0 | 0.00 | 0.00 | 0.00 | 73 | 1018.6 |
| 20260504014839 | 7 | 139 | 0.0 | 0.0 | 0.00 | 0.00 | 0.00 | 73 | 1018.6 |
| 20260504014339 | 7 | 97 | 0.0 | 1.6 | 0.00 | 0.00 | 0.00 | 74 | 1018.6 |
| 20260504013840 | 7 | 246 | 0.0 | 0.0 | 0.00 | 0.00 | 0.00 | 73 | 1018.3 |
| 20260504013340 | 7 | 236 | 1.6 | 3.2 | 0.00 | 0.00 | 0.00 | 71 | 1018.3 |
| 20260504012839 | 7 | 45 | 1.6 | 3.2 | 0.00 | 0.00 | 0.00 | 72 | 1017.9 |
| 20260504012339 | 7 | 62 | 0.0 | 1.6 | 0.00 | 0.00 | 0.00 | 73 | 1018.3 |
| 20260504011839 | 8 | 243 | 0.0 | 1.6 | 0.00 | 0.00 | 0.00 | 71 | 1017.9 |
| 20260504011340 | 8 | 38 | 0.0 | 0.0 | 0.00 | 0.00 | 0.00 | 71 | 1018.3 |
| 20260504010840 | 8 | 42 | 0.0 | 3.2 | 0.00 | 0.00 | 0.00 | 72 | 1018.3 |
| 20260504010339 | 8 | 230 | 0.0 | 1.6 | 0.00 | 0.00 | 0.00 | 71 | 1018.3 |
| 20260504005840 | 8 | 82 | 0.0 | 1.6 | 0.00 | 0.00 | 0.00 | 69 | 1017.9 |
| 20260504005340 | 8 | 94 | 1.6 | 1.6 | 0.00 | 0.00 | 0.00 | 70 | 1018.3 |
| 20260504004839 | 8 | 263 | 0.0 | 1.6 | 0.00 | 0.00 | 0.00 | 67 | 1018.6 |
| 20260504004339 | 9 | 76 | 0.0 | 0.0 | 0.00 | 0.00 | 0.00 | 73 | 1017.9 |
| 20260504003839 | 9 | 108 | 0.0 | 0.0 | 0.00 | 0.00 | 0.00 | 70 | 1018.3 |
| 20260504003340 | 9 | 173 | 0.0 | 0.0 | 0.00 | 0.00 | 0.00 | 68 | 1017.9 |
| 20260504002840 | 10 | 235 | 0.0 | 0.0 | 0.00 | 0.00 | 0.00 | 70 | 1017.9 |
| 20260504002339 | 10 | 55 | 0.0 | 1.6 | 0.00 | 0.00 | 0.00 | 67 | 1017.9 |
| 20260504001839 | 10 | 154 | 0.0 | 0.0 | 0.00 | 0.00 | 0.00 | 67 | 1017.9 |
| 20260504001339 | 10 | 310 | 0.0 | 3.2 | 0.00 | 0.00 | 0.00 | 66 | 1017.6 |
| 20260504000840 | 10 | 253 | 0.0 | 3.2 | 0.00 | 0.00 | 0.00 | 67 | 1017.9 |
| 20260504000339 | 10 | 162 | 0.0 | 1.6 | 0.00 | 0.00 | 0.00 | 65 | 1018.3 |
| 20260503235839 | 11 | 322 | 0.0 | 0.0 | 0.00 | 0.00 | 0.00 | 65 | 1018.3 |
| 20260503235339 | 11 | 129 | 0.0 | 1.6 | 0.00 | 0.00 | 0.00 | 65 | 1018.3 |
| 20260503234839 | 11 | 135 | 0.0 | 1.6 | 0.00 | 0.00 | 0.00 | 63 | 1017.9 |
| 20260503234340 | 11 | 236 | 0.0 | 3.2 | 0.00 | 0.00 | 0.00 | 60 | 1017.9 |
| 20260503233841 | 11 | 44 | 0.0 | 0.0 | 0.00 | 0.00 | 0.00 | 59 | 1017.9 |
| 20260503233340 | 11 | 135 | 0.0 | 3.2 | 0.00 | 0.00 | 0.00 | 62 | 1017.9 |
| 20260503232839 | 12 | 37 | 0.0 | 3.2 | 0.00 | 0.00 | 0.00 | 62 | 1017.6 |
| 20260503232339 | 12 | 44 | 0.0 | 1.6 | 0.00 | 0.00 | 0.00 | 59 | 1017.9 |
| 20260503231840 | 12 | 97 | 0.0 | 1.6 | 0.00 | 0.00 | 0.00 | 57 | 1017.6 |
| 20260503231339 | 12 | 299 | 0.0 | 1.6 | 0.00 | 0.00 | 0.00 | 58 | 1017.9 |
| 20260503230839 | 13 | 214 | 0.0 | 0.0 | 0.00 | 0.00 | 0.00 | 55 | 1017.9 |
| 20260503230340 | 13 | 166 | 0.0 | 1.6 | 0.00 | 0.00 | 0.00 | 52 | 1017.9 |
| 20260503225839 | 13 | 192 | 1.6 | 3.2 | 0.00 | 0.00 | 0.00 | 52 | 1017.9 |
| 20260503225339 | 14 | 53 | 1.6 | 4.8 | 0.00 | 0.00 | 0.00 | 47 | 1017.9 |
| 20260503224840 | 14 | 183 | 0.0 | 4.8 | 0.00 | 0.00 | 0.00 | 47 | 1018.3 |
| 20260503224339 | 15 | 213 | 4.8 | 4.8 | 0.00 | 0.00 | 0.00 | 43 | 1018.3 |
| 20260503223840 | 15 | 53 | 0.0 | 3.2 | 0.00 | 0.00 | 0.00 | 42 | 1018.6 |
| 20260503223340 | 15 | 176 | 0.0 | 8.0 | 0.00 | 0.00 | 0.00 | 34 | 1018.3 |
| 20260503222839 | 15 | 233 | 3.2 | 6.4 | 0.00 | 0.00 | 0.00 | 42 | 1018.6 |
| 20260503222340 | 15 | 244 | 3.2 | 4.8 | 0.00 | 0.00 | 0.00 | 43 | 1018.6 |
| 20260503221840 | 16 | 269 | 0.0 | 1.6 | 0.00 | 0.00 | 0.00 | 38 | 1018.6 |
| 20260503221340 | 16 | 245 | 3.2 | 9.7 | 0.00 | 0.00 | 0.00 | 31 | 1018.6 |
| 20260503220839 | 17 | 349 | 1.6 | 3.2 | 0.00 | 0.00 | 0.00 | 34 | 1019.0 |
| 20260503220340 | 17 | 246 | 8.0 | 14.5 | 0.00 | 0.00 | 0.00 | 31 | 1019.0 |
| 20260503215840 | 17 | 227 | 6.4 | 9.7 | 0.00 | 0.00 | 0.00 | 32 | 1019.0 |
| 20260503215340 | 16 | 253 | 4.8 | 16.1 | 0.00 | 0.00 | 0.00 | 30 | 1019.0 |
| 20260503214840 | 17 | 258 | 3.2 | 4.8 | 0.00 | 0.00 | 0.00 | 31 | 1019.0 |
| 20260503214340 | 17 | 261 | 3.2 | 6.4 | 0.00 | 0.00 | 0.00 | 33 | 1019.0 |
| 20260503213839 | 17 | 242 | 8.0 | 11.3 | 0.00 | 0.00 | 0.00 | 30 | 1019.0 |
| 20260503213340 | 17 | 265 | 3.2 | 6.4 | 0.00 | 0.00 | 0.00 | 31 | 1019.0 |
| 20260503212839 | 18 | 243 | 1.6 | 3.2 | 0.00 | 0.00 | 0.00 | 28 | 1019.0 |
| 20260503212339 | 18 | 242 | 3.2 | 4.8 | 0.00 | 0.00 | 0.00 | 28 | 1019.0 |
| 20260503211839 | 18 | 157 | 0.0 | 4.8 | 0.00 | 0.00 | 0.00 | 29 | 1019.3 |
| 20260503211339 | 17 | 239 | 9.7 | 11.3 | 0.00 | 0.00 | 0.00 | 29 | 1019.3 |
| 20260503210839 | 18 | 247 | 9.7 | 9.7 | 0.00 | 0.00 | 0.00 | 31 | 1019.6 |
| 20260503210339 | 17 | 261 | 3.2 | 6.4 | 0.00 | 0.00 | 0.00 | 28 | 1019.6 |
| 20260503205839 | 17 | 220 | 3.2 | 4.8 | 0.00 | 0.00 | 0.00 | 28 | 1020.0 |
| 20260503205339 | 17 | 239 | 3.2 | 6.4 | 0.00 | 0.00 | 0.00 | 30 | 1019.6 |
| 20260503204839 | 17 | 22 | 1.6 | 6.4 | 0.00 | 0.00 | 0.00 | 27 | 1019.6 |
| 20260503204341 | 18 | 247 | 8.0 | 14.5 | 0.00 | 0.00 | 0.00 | 27 | 1020.0 |
| 20260503203839 | 18 | 228 | 3.2 | 3.2 | 0.00 | 0.00 | 0.00 | 27 | 1020.0 |
| 20260503203339 | 18 | 128 | 3.2 | 9.7 | 0.00 | 0.00 | 0.00 | 27 | 1020.0 |
| 20260503202839 | 17 | 281 | 0.0 | 4.8 | 0.00 | 0.00 | 0.00 | 27 | 1020.0 |
| 20260503202339 | 18 | 101 | 3.2 | 3.2 | 0.00 | 0.00 | 0.00 | 26 | 1020.3 |
| 20260503201840 | 17 | 234 | 4.8 | 6.4 | 0.00 | 0.00 | 0.00 | 28 | 1020.3 |
| 20260503201340 | 17 | 355 | 1.6 | 4.8 | 0.00 | 0.00 | 0.00 | 26 | 1020.0 |
| 20260503200839 | 17 | 8 | 0.0 | 3.2 | 0.00 | 0.00 | 0.00 | 27 | 1020.7 |
| 20260503200339 | 17 | 25 | 1.6 | 8.0 | 0.00 | 0.00 | 0.00 | 27 | 1020.7 |
| 20260503195839 | 17 | 250 | 6.4 | 9.7 | 0.00 | 0.00 | 0.00 | 28 | 1021.0 |
| 20260503195339 | 17 | 264 | 6.4 | 12.9 | 0.00 | 0.00 | 0.00 | 27 | 1021.0 |
| 20260503194840 | 17 | 84 | 4.8 | 14.5 | 0.00 | 0.00 | 0.00 | 29 | 1021.0 |
| 20260503194339 | 17 | 229 | 1.6 | 4.8 | 0.00 | 0.00 | 0.00 | 33 | 1021.0 |
| 20260503193839 | 17 | 59 | 3.2 | 8.0 | 0.00 | 0.00 | 0.00 | 28 | 1021.3 |
| 20260503193339 | 17 | 150 | 0.0 | 6.4 | 0.00 | 0.00 | 0.00 | 29 | 1021.3 |
| 20260503192839 | 17 | 334 | 0.0 | 4.8 | 0.00 | 0.00 | 0.00 | 33 | 1021.7 |
| 20260503192339 | 16 | 235 | 8.0 | 8.0 | 0.00 | 0.00 | 0.00 | 30 | 1021.3 |
| 20260503191839 | 16 | 85 | 8.0 | 12.9 | 0.00 | 0.00 | 0.00 | 29 | 1022.0 |
| 20260503191339 | 16 | 179 | 3.2 | 6.4 | 0.00 | 0.00 | 0.00 | 30 | 1022.0 |
| 20260503190840 | 16 | 245 | 9.7 | 11.3 | 0.00 | 0.00 | 0.00 | 31 | 1022.0 |
| 20260503190339 | 16 | 302 | 1.6 | 6.4 | 0.00 | 0.00 | 0.00 | 29 | 1022.0 |
| 20260503185839 | 16 | 212 | 1.6 | 11.3 | 0.00 | 0.00 | 0.00 | 30 | 1022.4 |
| 20260503185340 | 15 | 94 | 0.0 | 4.8 | 0.00 | 0.00 | 0.00 | 31 | 1022.4 |
| 20260503184840 | 16 | 75 | 1.6 | 4.8 | 0.00 | 0.00 | 0.00 | 29 | 1022.7 |